Time,TemperatureF,DewpointF,PressureIn,WindDirection,WindDirectionDegrees,WindSpeedMPH,WindSpeedGustMPH,Humidity,HourlyPrecipIn,Conditions,Clouds,dailyrainin,SoftwareType,DateUTC
2013-05-22 00:04:00,48.0,-99.9,-100.00,ESE,117,7.0,8.0,-999,-99.99,,,-99.99,,2013-05-22 04:04:00,
2013-05-22 00:13:00,48.0,-99.9,-100.00,ESE,117,7.0,8.0,-999,-99.99,,,-99.99,,2013-05-22 04:13:00,
2013-05-22 00:23:00,48.0,-99.9,-100.00,ESE,117,7.0,8.0,-999,-99.99,,,-99.99,,2013-05-22 04:23:00,
2013-05-22 00:33:00,48.0,-99.9,-100.00,ESE,117,7.0,8.0,-999,-99.99,,,-99.99,,2013-05-22 04:33:00,
2013-05-22 00:40:00,48.0,-99.9,-100.00,ESE,108,3.0,6.0,-999,-99.99,,,-99.99,,2013-05-22 04:40:00,
2013-05-22 01:03:00,48.0,-99.9,-100.00,ESE,108,3.0,6.0,-999,-99.99,,,-99.99,,2013-05-22 05:03:00,
2013-05-22 01:12:00,48.0,-99.9,-100.00,ESE,108,3.0,6.0,-999,-99.99,,,-99.99,,2013-05-22 05:12:00,
2013-05-22 01:22:00,48.0,-99.9,-100.00,ESE,108,3.0,6.0,-999,-99.99,,,-99.99,,2013-05-22 05:22:00,
2013-05-22 01:32:00,48.0,-99.9,-100.00,ESE,108,3.0,6.0,-999,-99.99,,,-99.99,,2013-05-22 05:32:00,
2013-05-22 01:40:00,48.0,-99.9,-100.00,NNE,16,2.0,4.0,-999,-99.99,,,-99.99,,2013-05-22 05:40:00,
2013-05-22 02:01:00,48.0,-99.9,-100.00,NNE,16,2.0,4.0,-999,-99.99,,,-99.99,,2013-05-22 06:01:00,
2013-05-22 02:12:00,48.0,-99.9,-100.00,NNE,16,2.0,4.0,-999,-99.99,,,-99.99,,2013-05-22 06:12:00,
2013-05-22 02:22:00,48.0,-99.9,-100.00,NNE,16,2.0,4.0,-999,-99.99,,,-99.99,,2013-05-22 06:22:00,
2013-05-22 02:32:00,48.0,-99.9,-100.00,NNE,16,2.0,4.0,-999,-99.99,,,-99.99,,2013-05-22 06:32:00,
2013-05-22 02:40:00,49.0,-99.9,-100.00,North,-999,0.0,0.0,-999,-99.99,,,-99.99,,2013-05-22 06:40:00,
2013-05-22 03:02:00,49.0,-99.9,-100.00,North,-999,0.0,0.0,-999,-99.99,,,-99.99,,2013-05-22 07:02:00,
2013-05-22 03:12:00,49.0,-99.9,-100.00,North,-999,0.0,0.0,-999,-99.99,,,-99.99,,2013-05-22 07:12:00,
2013-05-22 03:22:00,49.0,-99.9,-100.00,North,-999,0.0,0.0,-999,-99.99,,,-99.99,,2013-05-22 07:22:00,
2013-05-22 03:32:00,49.0,-99.9,-100.00,North,-999,0.0,0.0,-999,-99.99,,,-99.99,,2013-05-22 07:32:00,
2013-05-22 03:40:00,50.0,-99.9,-100.00,North,-999,0.0,0.0,-999,-99.99,,,-99.99,,2013-05-22 07:40:00,
2013-05-22 04:02:00,50.0,-99.9,-100.00,North,-999,0.0,0.0,-999,-99.99,,,-99.99,,2013-05-22 08:02:00,
2013-05-22 04:12:00,50.0,-99.9,-100.00,North,-999,0.0,0.0,-999,-99.99,,,-99.99,,2013-05-22 08:12:00,
2013-05-22 04:22:00,50.0,-99.9,-100.00,North,-999,0.0,0.0,-999,-99.99,,,-99.99,,2013-05-22 08:22:00,
2013-05-22 04:32:00,50.0,-99.9,-100.00,North,-999,0.0,0.0,-999,-99.99,,,-99.99,,2013-05-22 08:32:00,
2013-05-22 04:40:00,50.0,-99.9,-100.00,North,-999,0.0,0.0,-999,-99.99,,,-99.99,,2013-05-22 08:40:00,
2013-05-22 05:12:00,50.0,-99.9,-100.00,North,-999,0.0,0.0,-999,-99.99,,,-99.99,,2013-05-22 09:12:00,
2013-05-22 05:22:00,50.0,-99.9,-100.00,North,-999,0.0,0.0,-999,-99.99,,,-99.99,,2013-05-22 09:22:00,
2013-05-22 05:33:00,50.0,-99.9,-100.00,North,-999,0.0,0.0,-999,-99.99,,,-99.99,,2013-05-22 09:33:00,
2013-05-22 05:40:00,51.0,-99.9,-100.00,NNE,24,0.0,5.0,-999,-99.99,,,-99.99,,2013-05-22 09:40:00,
2013-05-22 06:03:00,51.0,-99.9,-100.00,NNE,24,0.0,5.0,-999,-99.99,,,-99.99,,2013-05-22 10:03:00,
2013-05-22 06:13:00,51.0,-99.9,-100.00,NNE,24,0.0,5.0,-999,-99.99,,,-99.99,,2013-05-22 10:13:00,
2013-05-22 06:23:00,51.0,-99.9,-100.00,NNE,24,0.0,5.0,-999,-99.99,,,-99.99,,2013-05-22 10:23:00,
2013-05-22 06:33:00,51.0,-99.9,-100.00,NNE,24,0.0,5.0,-999,-99.99,,,-99.99,,2013-05-22 10:33:00,
2013-05-22 07:40:00,50.0,-99.9,-100.00,North,1,4.0,7.0,-999,-99.99,,,-99.99,,2013-05-22 11:40:00,
2013-05-22 08:02:00,50.0,-99.9,-100.00,North,1,4.0,7.0,-999,-99.99,,,-99.99,,2013-05-22 12:02:00,
2013-05-22 08:12:00,50.0,-99.9,-100.00,North,1,4.0,7.0,-999,-99.99,,,-99.99,,2013-05-22 12:12:00,
2013-05-22 08:22:00,50.0,-99.9,-100.00,North,1,4.0,7.0,-999,-99.99,,,-99.99,,2013-05-22 12:22:00,
2013-05-22 08:32:00,50.0,-99.9,-100.00,North,1,4.0,7.0,-999,-99.99,,,-99.99,,2013-05-22 12:32:00,
2013-05-22 08:40:00,51.0,-99.9,-100.00,North,11,5.0,10.0,-999,-99.99,,,-99.99,,2013-05-22 12:40:00,
2013-05-22 09:02:00,51.0,-99.9,-100.00,North,11,5.0,10.0,-999,-99.99,,,-99.99,,2013-05-22 13:02:00,
2013-05-22 09:12:00,51.0,-99.9,-100.00,North,11,5.0,10.0,-999,-99.99,,,-99.99,,2013-05-22 13:12:00,
2013-05-22 09:22:00,51.0,-99.9,-100.00,North,11,5.0,10.0,-999,-99.99,,,-99.99,,2013-05-22 13:22:00,
2013-05-22 09:32:00,51.0,-99.9,-100.00,North,11,5.0,10.0,-999,-99.99,,,-99.99,,2013-05-22 13:32:00,
2013-05-22 09:40:00,52.0,-99.9,-100.00,NNE,13,6.0,12.0,-999,-99.99,,,-99.99,,2013-05-22 13:40:00,
2013-05-22 10:02:00,52.0,-99.9,-100.00,NNE,13,6.0,12.0,-999,-99.99,,,-99.99,,2013-05-22 14:02:00,
2013-05-22 10:11:00,52.0,-99.9,-100.00,NNE,13,6.0,12.0,-999,-99.99,,,-99.99,,2013-05-22 14:11:00,
2013-05-22 10:22:00,52.0,-99.9,-100.00,NNE,13,6.0,12.0,-999,-99.99,,,-99.99,,2013-05-22 14:22:00,
2013-05-22 10:32:00,52.0,-99.9,-100.00,NNE,13,6.0,12.0,-999,-99.99,,,-99.99,,2013-05-22 14:32:00,
2013-05-22 10:40:00,53.0,-99.9,-100.00,North,5,3.0,6.0,-999,-99.99,,,-99.99,,2013-05-22 14:40:00,
2013-05-22 11:02:00,53.0,-99.9,-100.00,North,5,3.0,6.0,-999,-99.99,,,-99.99,,2013-05-22 15:02:00,
2013-05-22 11:11:00,53.0,-99.9,-100.00,North,5,3.0,6.0,-999,-99.99,,,-99.99,,2013-05-22 15:11:00,
2013-05-22 11:22:00,53.0,-99.9,-100.00,North,5,3.0,6.0,-999,-99.99,,,-99.99,,2013-05-22 15:22:00,
2013-05-22 11:33:00,53.0,-99.9,-100.00,North,5,3.0,6.0,-999,-99.99,,,-99.99,,2013-05-22 15:33:00,
2013-05-22 11:40:00,53.0,-99.9,-100.00,North,11,3.0,6.0,-999,-99.99,,,-99.99,,2013-05-22 15:40:00,
2013-05-22 12:03:00,53.0,-99.9,-100.00,North,11,3.0,6.0,-999,-99.99,,,-99.99,,2013-05-22 16:03:00,
2013-05-22 12:13:00,53.0,-99.9,-100.00,North,11,3.0,6.0,-999,-99.99,,,-99.99,,2013-05-22 16:13:00,
2013-05-22 12:23:00,53.0,-99.9,-100.00,North,11,3.0,6.0,-999,-99.99,,,-99.99,,2013-05-22 16:23:00,
2013-05-22 12:33:00,53.0,-99.9,-100.00,North,11,3.0,6.0,-999,-99.99,,,-99.99,,2013-05-22 16:33:00,
2013-05-22 12:40:00,54.0,-99.9,-100.00,North,6,7.0,13.0,-999,-99.99,,,-99.99,,2013-05-22 16:40:00,
2013-05-22 13:02:00,54.0,-99.9,-100.00,North,6,7.0,13.0,-999,-99.99,,,-99.99,,2013-05-22 17:02:00,
2013-05-22 13:12:00,54.0,-99.9,-100.00,North,6,7.0,13.0,-999,-99.99,,,-99.99,,2013-05-22 17:12:00,
2013-05-22 13:23:00,54.0,-99.9,-100.00,North,6,7.0,13.0,-999,-99.99,,,-99.99,,2013-05-22 17:23:00,
2013-05-22 13:33:00,54.0,-99.9,-100.00,North,6,7.0,13.0,-999,-99.99,,,-99.99,,2013-05-22 17:33:00,
2013-05-22 13:40:00,55.0,-99.9,-100.00,NNW,343,6.0,10.0,-999,-99.99,,,-99.99,,2013-05-22 17:40:00,
2013-05-22 14:02:00,55.0,-99.9,-100.00,NNW,343,6.0,10.0,-999,-99.99,,,-99.99,,2013-05-22 18:02:00,
2013-05-22 14:14:00,55.0,-99.9,-100.00,NNW,343,6.0,10.0,-999,-99.99,,,-99.99,,2013-05-22 18:14:00,
2013-05-22 14:23:00,55.0,-99.9,-100.00,NNW,343,6.0,10.0,-999,-99.99,,,-99.99,,2013-05-22 18:23:00,
2013-05-22 14:34:00,55.0,-99.9,-100.00,NNW,343,6.0,10.0,-999,-99.99,,,-99.99,,2013-05-22 18:34:00,
2013-05-22 14:40:00,55.0,-99.9,-100.00,NNW,341,8.0,13.0,-999,-99.99,,,-99.99,,2013-05-22 18:40:00,
2013-05-22 15:02:00,55.0,-99.9,-100.00,NNW,341,8.0,13.0,-999,-99.99,,,-99.99,,2013-05-22 19:02:00,
2013-05-22 15:11:00,55.0,-99.9,-100.00,NNW,341,8.0,13.0,-999,-99.99,,,-99.99,,2013-05-22 19:11:00,
2013-05-22 15:22:00,55.0,-99.9,-100.00,NNW,341,8.0,13.0,-999,-99.99,,,-99.99,,2013-05-22 19:22:00,
2013-05-22 15:32:00,55.0,-99.9,-100.00,NNW,341,8.0,13.0,-999,-99.99,,,-99.99,,2013-05-22 19:32:00,
2013-05-22 15:40:00,55.0,-99.9,-100.00,North,352,8.0,12.0,-999,-99.99,,,-99.99,,2013-05-22 19:40:00,
2013-05-22 16:02:00,55.0,-99.9,-100.00,North,352,8.0,12.0,-999,-99.99,,,-99.99,,2013-05-22 20:02:00,
2013-05-22 16:11:00,55.0,-99.9,-100.00,North,352,8.0,12.0,-999,-99.99,,,-99.99,,2013-05-22 20:11:00,
2013-05-22 16:22:00,55.0,-99.9,-100.00,North,352,8.0,12.0,-999,-99.99,,,-99.99,,2013-05-22 20:22:00,
2013-05-22 16:32:00,55.0,-99.9,-100.00,North,352,8.0,12.0,-999,-99.99,,,-99.99,,2013-05-22 20:32:00,
2013-05-22 16:40:00,55.0,-99.9,-100.00,NNW,345,9.0,14.0,-999,-99.99,,,-99.99,,2013-05-22 20:40:00,
2013-05-22 17:02:00,55.0,-99.9,-100.00,NNW,345,9.0,14.0,-999,-99.99,,,-99.99,,2013-05-22 21:02:00,
2013-05-22 17:11:00,55.0,-99.9,-100.00,NNW,345,9.0,14.0,-999,-99.99,,,-99.99,,2013-05-22 21:11:00,
2013-05-22 17:22:00,55.0,-99.9,-100.00,NNW,345,9.0,14.0,-999,-99.99,,,-99.99,,2013-05-22 21:22:00,
2013-05-22 17:33:00,55.0,-99.9,-100.00,NNW,345,9.0,14.0,-999,-99.99,,,-99.99,,2013-05-22 21:33:00,
2013-05-22 17:40:00,53.0,-99.9,-100.00,NNW,348,9.0,14.0,-999,-99.99,,,-99.99,,2013-05-22 21:40:00,
2013-05-22 18:03:00,53.0,-99.9,-100.00,NNW,348,9.0,14.0,-999,-99.99,,,-99.99,,2013-05-22 22:03:00,
2013-05-22 18:13:00,53.0,-99.9,-100.00,NNW,348,9.0,14.0,-999,-99.99,,,-99.99,,2013-05-22 22:13:00,
2013-05-22 18:22:00,53.0,-99.9,-100.00,NNW,348,9.0,14.0,-999,-99.99,,,-99.99,,2013-05-22 22:22:00,
2013-05-22 18:33:00,53.0,-99.9,-100.00,NNW,348,9.0,14.0,-999,-99.99,,,-99.99,,2013-05-22 22:33:00,
2013-05-22 18:40:00,52.0,-99.9,-100.00,North,357,9.0,16.0,-999,-99.99,,,-99.99,,2013-05-22 22:40:00,
2013-05-22 19:02:00,52.0,-99.9,-100.00,North,357,9.0,16.0,-999,-99.99,,,-99.99,,2013-05-22 23:02:00,
2013-05-22 19:13:00,52.0,-99.9,-100.00,North,357,9.0,16.0,-999,-99.99,,,-99.99,,2013-05-22 23:13:00,
2013-05-22 19:22:00,52.0,-99.9,-100.00,North,357,9.0,16.0,-999,-99.99,,,-99.99,,2013-05-22 23:22:00,
2013-05-22 19:32:00,52.0,-99.9,-100.00,North,357,9.0,16.0,-999,-99.99,,,-99.99,,2013-05-22 23:32:00,
2013-05-22 19:40:00,51.0,-99.9,-100.00,North,10,6.0,13.0,-999,-99.99,,,-99.99,,2013-05-22 23:40:00,
2013-05-22 20:02:00,51.0,-99.9,-100.00,North,10,6.0,13.0,-999,-99.99,,,-99.99,,2013-05-23 00:02:00,
2013-05-22 20:11:00,51.0,-99.9,-100.00,North,10,6.0,13.0,-999,-99.99,,,-99.99,,2013-05-23 00:11:00,
2013-05-22 20:22:00,51.0,-99.9,-100.00,North,10,6.0,13.0,-999,-99.99,,,-99.99,,2013-05-23 00:22:00,
2013-05-22 20:32:00,51.0,-99.9,-100.00,North,10,6.0,13.0,-999,-99.99,,,-99.99,,2013-05-23 00:32:00,
2013-05-22 20:40:00,51.0,-99.9,-100.00,North,6,6.0,14.0,-999,-99.99,,,-99.99,,2013-05-23 00:40:00,
2013-05-22 21:02:00,51.0,-99.9,-100.00,North,6,6.0,14.0,-999,-99.99,,,-99.99,,2013-05-23 01:02:00,
2013-05-22 21:11:00,51.0,-99.9,-100.00,North,6,6.0,14.0,-999,-99.99,,,-99.99,,2013-05-23 01:11:00,
2013-05-22 21:22:00,51.0,-99.9,-100.00,North,6,6.0,14.0,-999,-99.99,,,-99.99,,2013-05-23 01:22:00,
2013-05-22 21:32:00,51.0,-99.9,-100.00,North,6,6.0,14.0,-999,-99.99,,,-99.99,,2013-05-23 01:32:00,
2013-05-22 21:40:00,52.0,-99.9,-100.00,NNE,22,10.0,15.0,-999,-99.99,,,-99.99,,2013-05-23 01:40:00,
2013-05-22 22:02:00,52.0,-99.9,-100.00,NNE,22,10.0,15.0,-999,-99.99,,,-99.99,,2013-05-23 02:02:00,
2013-05-22 22:11:00,52.0,-99.9,-100.00,NNE,22,10.0,15.0,-999,-99.99,,,-99.99,,2013-05-23 02:11:00,
2013-05-22 22:22:00,52.0,-99.9,-100.00,NNE,22,10.0,15.0,-999,-99.99,,,-99.99,,2013-05-23 02:22:00,
2013-05-22 22:32:00,52.0,-99.9,-100.00,NNE,22,10.0,15.0,-999,-99.99,,,-99.99,,2013-05-23 02:32:00,
2013-05-22 22:40:00,53.0,-99.9,-100.00,NNE,29,13.0,22.0,-999,-99.99,,,-99.99,,2013-05-23 02:40:00,
2013-05-22 23:02:00,53.0,-99.9,-100.00,NNE,29,13.0,22.0,-999,-99.99,,,-99.99,,2013-05-23 03:02:00,
2013-05-22 23:11:00,53.0,-99.9,-100.00,NNE,29,13.0,22.0,-999,-99.99,,,-99.99,,2013-05-23 03:11:00,
2013-05-22 23:22:00,53.0,-99.9,-100.00,NNE,29,13.0,22.0,-999,-99.99,,,-99.99,,2013-05-23 03:22:00,
2013-05-22 23:33:00,53.0,-99.9,-100.00,NNE,29,13.0,22.0,-999,-99.99,,,-99.99,,2013-05-23 03:33:00,
2013-05-22 23:40:00,53.0,-99.9,-100.00,NNE,23,15.0,22.0,-999,-99.99,,,-99.99,,2013-05-23 03:40:00,